WCAT05 SOCA-SOOG

Flight info

Callsign WCAT05
Flight time N/A
Altitude 5000
Route SOCA SOOG
Aircraft WCAT/L-V/N

Departure

Time 2026-04-26 19:55
Airport Cayenne – Félix Eboué Airport (SOCA)

Arrival

Time N/A
Airport Saint-Georges-de-l'Oyapock Airport (SOOG)
Time Latitude Longitude Altitude Speed Heading
2026-04-26 19:53 4.81416 -52.37389 23 ft 12 kts 66°
2026-04-26 19:54 4.82043 -52.36244 24 ft 0 kts 156°
2026-04-26 19:54 4.81412 -52.37397 23 ft 6 kts 62°
2026-04-26 19:54 4.81570 -52.37061 24 ft 99 kts 67°
2026-04-26 19:54 4.81944 -52.36362 463 ft 120 kts 65°
2026-04-26 19:55 4.82263 -52.35677 783 ft 145 kts 70°
2026-04-26 19:55 4.82293 -52.35597 835 ft 145 kts 70°
2026-04-26 19:55 4.82320 -52.34506 1071 ft 171 kts 97°
2026-04-26 19:55 4.82050 -52.33389 1200 ft 167 kts 102°
2026-04-26 19:56 4.81614 -52.32362 1608 ft 155 kts 127°
2026-04-26 19:56 4.80629 -52.31731 1501 ft 181 kts 149°
2026-04-26 19:56 4.79379 -52.31349 1390 ft 198 kts 168°
2026-04-26 19:56 4.77981 -52.31409 1357 ft 203 kts 187°
2026-04-26 19:57 4.76624 -52.31758 1489 ft 192 kts 201°
2026-04-26 19:57 4.75507 -52.32485 1288 ft 207 kts 230°
2026-04-26 19:57 4.75238 -52.33870 1329 ft 195 kts 294°
2026-04-26 19:57 4.76116 -52.34838 1283 ft 196 kts 328°
2026-04-26 19:58 4.77441 -52.35170 1040 ft 197 kts
2026-04-26 19:58 4.78647 -52.34624 820 ft 193 kts 37°
2026-04-26 20:00 4.79443 -52.33915 1127 ft 168 kts 46°
2026-04-26 20:00 4.80144 -52.33107 1661 ft 140 kts 45°
2026-04-26 20:00 4.80960 -52.32628 1758 ft 152 kts 13°
2026-04-26 20:01 4.82103 -52.32985 1350 ft 195 kts 322°
2026-04-26 20:01 4.82300 -52.33206 1431 ft 192 kts 311°
2026-04-26 20:01 4.82905 -52.34318 1401 ft 194 kts 318°
2026-04-26 20:02 4.84090 -52.34417 1387 ft 170 kts 13°
2026-04-26 20:02 4.85091 -52.35027 1226 ft 205 kts 296°
2026-04-26 20:02 4.84927 -52.36501 658 ft 231 kts 237°
2026-04-26 20:02 4.84191 -52.37223 594 ft 219 kts 207°
2026-04-26 20:03 4.82507 -52.38162 684 ft 198 kts 222°
2026-04-26 20:03 4.81521 -52.38939 750 ft 160 kts 187°
2026-04-26 20:03 4.80920 -52.38388 473 ft 140 kts 75°